Volver al catálogo

THORAD AGENA D DEB

ActivoLEO
NORAD 22533·DEBRIS·🇺🇸 United States

Lanzado Apr 8, 1970 desde Vandenberg Space Force Base

Loading…

Próximos Pases (próximas 24 horas)

TLE

ActualizadoSource: Space-Track

Época: Sep 14, 2026, 00:11 UTC

1 22533U 70025QP  26257.00810081  .00000896  00000-0  10330-2 0  9991
2 22533 100.1039  86.0135 0004872  24.9223 128.7704 13.72450548665495

Sigue THORAD AGENA D DEB en tiempo real con AllMySat

Download on the App Store